Location: Grieser Field
(39.7333°N, 81.7975°W)
Time: 06:21:12
(UTC-04:00)

MOS 1-B - Visible Passes

Search period start: 26 July 2016 00:00
Search period end: 05 August 2016 00:00
Orbit: 906 x 913 km, 99.2° (Epoch: 25 July)

Date Brightness Start Highest point End Pass type
(mag) Time Alt. Az. Time Alt. Az. Time Alt. Az.
26 Jul 5.4 03:49:27 10° NNE 03:54:53 39° E 03:58:31 19° SSE visible
26 Jul 5.4 05:31:36 10° N 05:36:32 30° WNW 05:41:28 10° WSW visible
27 Jul 5.2 03:54:50 10° NNE 04:00:22 44° E 04:04:00 20° SSE visible
27 Jul 5.5 05:37:11 10° N 05:41:56 27° WNW 05:46:42 10° WSW visible
28 Jul 5.1 04:00:13 10° NNE 04:05:51 49° E 04:09:28 21° SSE visible
28 Jul 5.6 05:42:46 10° N 05:47:20 25° WNW 05:51:54 10° WSW visible
29 Jul 4.9 04:05:38 10° NNE 04:11:20 54° E 04:14:57 22° S visible
29 Jul 5.7 05:48:23 10° NNW 05:52:44 22° WNW 05:57:05 10° WSW visible
30 Jul 4.7 04:11:02 10° NNE 04:16:48 60° ESE 04:20:26 23° S visible
31 Jul 4.6 04:16:28 10° NNE 04:22:16 67° ESE 04:25:53 24° S visible
01 Aug 4.4 04:21:54 10° NNE 04:27:44 75° ESE 04:31:22 24° S visible
02 Aug 4.4 04:27:21 10° NNE 04:33:11 83° ESE 04:36:51 24° S visible
03 Aug 6.8 02:54:14 10° ENE 02:56:05 11° E 02:57:56 10° ESE visible
03 Aug 4.3 04:32:48 10° NNE 04:38:39 89° WNW 04:42:18 24° SSW visible
04 Aug 6.7 02:59:00 10° ENE 03:01:38 13° E 03:04:13 10° ESE visible
04 Aug 4.3 04:38:16 10° NNE 04:44:06 81° WNW 04:47:47 24° SSW visible
